This is the latest recevied weather packets stored in our database for station/object IK1AMC-3. If no packets are shown the sender has not sent any weather packets the latest 10 day(s).
| Time | Temp. | Humidity | Pressure | Rain* | Wind** | Luminosity | Snow |
|---|---|---|---|---|---|---|---|
| 1777623499 | 18.33° C | 37% | 1025 hPa | - | - | - | - |
| 1777622298 | 17.78° C | 39% | 1024.7 hPa | - | - | - | - |
| 1777621096 | 17.78° C | 41% | 1024.5 hPa | - | - | - | - |
| 1777619895 | 17.22° C | 45% | 1024.6 hPa | - | - | - | - |
| 1777618694 | 16.67° C | 45% | 1024.5 hPa | - | - | - | - |
| 1777617493 | 16.67° C | 48% | 1024.3 hPa | - | - | - | - |
| 1777616291 | 16.11° C | 49% | 1024.2 hPa | - | - | - | - |
| 1777615090 | 15.56° C | 48% | 1024.3 hPa | - | - | - | - |
| 1777613889 | 15.56° C | 48% | 1024.1 hPa | - | - | - | - |
| 1777612687 | 15.56° C | 46% | 1023.8 hPa | - | - | - | - |
| 1777611486 | 15.56° C | 45% | 1023.4 hPa | - | - | - | - |
| 1777610285 | 15.56° C | 44% | 1023.3 hPa | - | - | - | - |
| 1777609084 | 15.56° C | 45% | 1023.1 hPa | - | - | - | - |
| 1777607882 | 15.56° C | 44% | 1023.2 hPa | - | - | - | - |
| 1777606681 | 15.56° C | 45% | 1023 hPa | - | - | - | - |
| 1777605480 | 15.56° C | 46% | 1023 hPa | - | - | - | - |
| 1777604278 | 15.56° C | 47% | 1023.1 hPa | - | - | - | - |
| 1777603077 | 15.56° C | 47% | 1023.1 hPa | - | - | - | - |
| 1777601876 | 15.56° C | 47% | 1023.1 hPa | - | - | - | - |
| 1777600674 | 15.56° C | 45% | 1023.1 hPa | - | - | - | - |
| 1777599473 | 16.11° C | 45% | 1022.9 hPa | - | - | - | - |
| 1777598272 | 16.11° C | 47% | 1022.8 hPa | - | - | - | - |
| 1777597071 | 16.11° C | 46% | 1022.8 hPa | - | - | - | - |
| 1777595869 | 16.67° C | 44% | 1022.6 hPa | - | - | - | - |
| 1777594668 | 16.67° C | 44% | 1022.4 hPa | - | - | - | - |
* Rain since midnight (hover to see other rain measurements)
** Current wind speed in m/s (hover to see current wind gust speed)